Weather History for Wilmington, NC

Change the Weather History Date:

Thursday, September 4, 2014

  Actual Average Record
Temperature  
Mean Temperature 81 °F 78 °F  
Max Temperature 89 °F 86 °F 100 °F (1925)
Min Temperature 73 °F 69 °F 53 °F (1997)
Degree Days  
Heating Degree Days 0 0  
Month to date heating degree days 0 0  
Since 1 July heating degree days 0 0  
Cooling Degree Days 16 13  
Month to date cooling degree days 71 52  
Year to date cooling degree days 1828 1675  
Growing Degree Days 31 (Base 50)    
Moisture  
Dew Point 73 °F    
Average Humidity 78    
Maximum Humidity 100    
Minimum Humidity 55    
Precipitation  
Precipitation 0.00 in 0.27 in 3.44 in (1979)
Month to date precipitation T 1.09  
Year to date precipitation 42.51 40.06  
Sea Level Pressure  
Sea Level Pressure 30.15 in    
Wind  
Wind Speed 4 mph (SSE)    
Max Wind Speed 15 mph    
Max Gust Speed 20 mph    
Visibility 10 miles    
Events      
T = Trace of Precipitation, MM = Missing Value Source: NWS Daily Summary

Daily Weather History Graph

Daily Weather History Graph

Search for Another Location

Airport:

Trip Planner

Search our weather history database for the weather conditions in past years. The results will help you decide how hot, cold, wet, or windy it might be!

Date:

Astronomy

Sep. 04, 2014 Rise Set
Actual Time 6:47 AM EDT 7:33 PM EDT
Civil Twilight 6:21 AM EDT 7:59 PM EDT
Nautical Twilight 5:51 AM EDT 8:29 PM EDT
Astronomical Twilight 5:20 AM EDT 8:59 PM EDT
Moon 4:01 PM EDT (9/4) 1:44 AM EDT (9/4)
Length of Visible Light 13h 37m
Length of Day
12h 46m
Waxing Gibbous, 74% of the Moon is Illuminated
Sep 4
Waxing Gibbous
Sep 8
Full
Sep 15
Last Quarter
Sep 24
New
Oct 1
First Quarter

Hourly Weather History & Observations

Time (EDT) Temp. Heat Index Dew Point Humidity Pressure Visibility Wind Dir Wind Speed Gust Speed Precip Events Conditions
12:53 AM 78.1 °F - 75.0 °F 90% 30.13 in 10.0 mi South 3.5 mph - N/A   Clear
1:53 AM 79.0 °F - 73.9 °F 84% 30.12 in 10.0 mi South 4.6 mph - N/A   Clear
2:53 AM 77.0 °F - 73.9 °F 90% 30.12 in 10.0 mi Calm Calm - N/A   Clear
3:53 AM 75.0 °F - 73.9 °F 96% 30.12 in 10.0 mi Calm Calm - N/A   Clear
4:53 AM 73.9 °F - 73.0 °F 97% 30.12 in 10.0 mi Calm Calm - N/A   Clear
5:53 AM 75.0 °F - 73.0 °F 94% 30.13 in 10.0 mi Calm Calm - N/A   Clear
6:53 AM 73.0 °F - 72.0 °F 96% 30.14 in 10.0 mi Calm Calm - N/A   Clear
7:18 AM 75.0 °F - 73.0 °F 94% 30.15 in 10.0 mi NE 3.5 mph - N/A   Mostly Cloudy
7:27 AM 75.0 °F - 73.9 °F 96% 30.15 in 10.0 mi Calm Calm - N/A   Scattered Clouds
7:53 AM 77.0 °F - 75.0 °F 94% 30.17 in 10.0 mi Calm Calm - N/A   Partly Cloudy
8:53 AM 81.0 °F 86.7 °F 75.0 °F 82% 30.17 in 10.0 mi SSE 4.6 mph - N/A   Clear
9:53 AM 84.9 °F 92.1 °F 73.9 °F 69% 30.17 in 10.0 mi SE 5.8 mph - N/A   Scattered Clouds
10:53 AM 82.9 °F 88.8 °F 73.0 °F 72% 30.18 in 10.0 mi SE 4.6 mph - N/A   Mostly Cloudy
11:53 AM 84.9 °F 90.7 °F 72.0 °F 65% 30.17 in 10.0 mi SSW 3.5 mph - N/A   Mostly Cloudy
12:53 PM 89.1 °F 96.0 °F 72.0 °F 57% 30.16 in 10.0 mi SSE 9.2 mph - N/A   Clear
1:53 PM 88.0 °F 92.9 °F 70.0 °F 55% 30.16 in 10.0 mi SE 10.4 mph - N/A   Clear
2:53 PM 88.0 °F 92.1 °F 69.1 °F 53% 30.15 in 10.0 mi SSE 10.4 mph - N/A   Clear
3:53 PM 87.1 °F 93.6 °F 72.0 °F 61% 30.13 in 10.0 mi SSE 11.5 mph 19.6 mph N/A   Clear
4:53 PM 84.9 °F 90.7 °F 72.0 °F 65% 30.12 in 10.0 mi South 11.5 mph - N/A   Clear
5:53 PM 84.9 °F 90.7 °F 72.0 °F 65% 30.13 in 10.0 mi South 11.5 mph - N/A   Clear
6:53 PM 82.9 °F 88.8 °F 73.0 °F 72% 30.13 in 10.0 mi SSE 8.1 mph - N/A   Clear
7:53 PM 81.0 °F 86.7 °F 75.0 °F 82% 30.14 in 10.0 mi SE 3.5 mph - N/A   Clear
8:53 PM 81.0 °F 86.2 °F 73.9 °F 79% 30.17 in 10.0 mi SE 3.5 mph - N/A   Clear
9:53 PM 79.0 °F - 73.9 °F 84% 30.17 in 10.0 mi Calm Calm - N/A   Clear
10:53 PM 78.8 °F - 73.4 °F 83% 30.17 in 10.0 mi Calm Calm - N/A   Clear
11:53 PM 77.0 °F - 73.9 °F 90% 30.18 in 10.0 mi Calm Calm - N/A   Clear